Flag for Germany Weather past 2 weeks in Dillenburg, Hesse, Germany

Now
55 °F

Overcast.


Feels Like: 54 °F
Forecast: 49 / 77 °F
Wind: 5 mph from Northeast

Location: Giessen

Current Time: Aug 1, 2015 at 6:25:56 AM

Latest Report: Aug 1, 2015 at 5:00 AM


Visibility: 44 mi

Pressure: 29.99 "Hg

Humidity: 62%

Dew point: 42 °F

Location of DillenburgLocation

Historic Weather in Dillenburg — Graph

°F

Dillenburg temperature yesterday

Maximum temperature yesterday: 69 °F (at 6:00 PM)
Minimum temperature yesterday: 49 °F (at 7:00 AM)
Average temperature yesterday: 60 °F

Past Weeks' High & Low Weather Summary

 TemperatureHumidityPressure
High96 °F (Jul 17, 5:00 PM)100% (Jul 19, 7:00 AM)30.14 "Hg (Jul 19, 7:00 AM)
Low48 °F (Jul 30, 4:00 AM)19% (Jul 17, 4:00 PM)29.59 "Hg (Jul 27, 10:00 AM)
Average67 °F65%29.89 "Hg
* Reported Jul 17 5:00 AM — Aug 1 5:00 AM, Dillenburg, Weather by CustomWeather, © 2015

Note: Actual official high and low records may vary slightly from our data, if they occured in-between our weather recording intervals... More about our weather records

Advertising

Dillenburg weather history for previous 24 hours

 ConditionsComfort  
Time TempWeatherWind HumidityBarometerVisibility
5:00 AM
Sat, Aug 1
55 °FOvercast.5 mph62%29.99 "Hg43 mi
4:00 AM55 °FOvercast.5 mph60%30.00 "Hg43 mi
3:00 AM56 °FOvercast.5 mph59%30.01 "Hg43 mi
2:00 AM57 °FOvercast.5 mph57%30.02 "Hg43 mi
1:00 AM57 °FOvercast.5 mph57%30.03 "Hg40 mi
12:00 AM57 °FOvercast.5 mph56%30.02 "Hg37 mi
11:00 PM
Fri, Jul 31
58 °FOvercast.5 mph54%30.02 "Hg43 mi
10:00 PM60 °FPassing clouds.5 mph51%30.01 "Hg43 mi
9:00 PM63 °FPassing clouds.3 mph48%30.01 "Hg43 mi
8:00 PM67 °FPartly sunny.5 mph38%30.01 "Hg43 mi
7:00 PM69 °FScattered clouds.3 mph33%30.02 "Hg40 mi
6:00 PM69 °FOvercast.2 mph33%30.03 "Hg28 mi
5:00 PM69 °FOvercast.2 mph35%30.04 "Hg22 mi
4:00 PM69 °FPassing clouds.3 mph35%30.04 "Hg37 mi
3:00 PM68 °FPassing clouds.5 mph38%30.06 "Hg19 mi
2:00 PM68 °FScattered clouds.3 mph39%30.09 "Hg22 mi
1:00 PM63 °FSunny.3 mph41%30.11 "Hg37 mi
12:00 PM61 °FSunny.1 mph50%30.12 "Hg43 mi
11:00 AM60 °FScattered clouds.2 mph54%30.13 "Hg31 mi
10:00 AM60 °FSunny.2 mph59%30.13 "Hg22 mi
9:00 AM56 °FSunny.2 mph65%30.14 "Hg22 mi
8:00 AM54 °FSunny.1 mph71%30.14 "Hg19 mi
7:00 AM49 °FSunny.1 mph92%30.14 "Hg5 mi
Weather by CustomWeather, © 2015

See weather overviewHow to use our weather pages